Regional Weather Roundup
Issued by NWS Green Bay, WI

Home | Current Version | Previous Version | Graphics & Text | Print | Product List | Glossary Off
Versions: 1 2 3 4 5 6 7 8 9 10 11 12 13 14 15 16 17 18 19 20 21 22 23 24 25 26 27 28 29 30 31 32 33 34 35 36 37 38 39 40 41 42 43 44 45 46 47 48 49 50

000
ASUS43 KGRB 191911
RWRGRB

NORTH-CENTRAL AND NORTHEAST WISCONSIN REGIONAL WEATHER ROUNDUP
NATIONAL WEATHER SERVICE GREEN BAY WI
100 PM CST SUN FEB 19 2017

WIZ005-009-010>012-018-019-192000-
NORTH CENTRAL WISCONSIN

CITY           SKY/WX    TMP DP  RH WIND       PRES   REMARKS
IRONWOOD       SUNNY     51  28  41 E5        29.98F
MANITOWISH WTR MOSUNNY   49  28  45 CALM      29.98F
ARBOR VITAE    MOSUNNY   52  29  41 SE3       29.98F
EAGLE RIVER    SUNNY     51  25  36 CALM      29.99F
LAND O LAKES   SUNNY     52  24  34 CALM      30.01F
RHINELANDER    SUNNY     52  28  39 CALM      29.99F
PHILLIPS       MOSUNNY   55  29  37 CALM      29.97F
ANTIGO         SUNNY     44  31  61 CALM      30.02S
TOMAHAWK       MOSUNNY   56  27  32 CALM      29.99F
MERRILL        NOT AVBL
$$

WIZ013-073-192000-
NORTHEAST WISCONSIN

CITY           SKY/WX    TMP DP  RH WIND       PRES   REMARKS
IRON MOUNTAIN  SUNNY     49  30  48 CALM      30.01F
MARINETTE      SUNNY     48  32  53 S8        30.05S
OCONTO         MOSUNNY   51  31  46 SE7       30.04S
$$

WIZ017-030-035>037-045-192000-
CENTRAL WISCONSIN

CITY           SKY/WX    TMP DP  RH WIND       PRES   REMARKS
MEDFORD        MOSUNNY   46  32  58 S7        30.00S
WAUSAU         MOSUNNY   53  30  41 S3        29.99F
MOSINEE        PTSUNNY   50  32  50 S3        30.02F
MARSHFIELD     SUNNY     51  31  46 S7        29.99F
WISC RAPIDS    SUNNY     59  32  36 SW5       30.02F
STEVENS POINT  SUNNY     52  31  44 E5        30.02S
WAUPACA        SUNNY     60  32  35 CALM      30.03S
SHAWANO        MOSUNNY   54  33  45 E3        30.03S
CLINTONVILLE   PTSUNNY   54  32  43 SW5       30.03S
WAUTOMA        SUNNY     60  34  37 S8        30.02F
$$

WIZ038-039-048-051-192000-
FOX VALLEY

CITY           SKY/WX    TMP DP  RH WIND       PRES   REMARKS
NWS GREEN BAY  MOSUNNY   55  36  48 SE5       30.03F
APPLETON       MOSUNNY   54  28  37 SE7       30.02F
OSHKOSH        SUNNY     56  37  49 S6        30.03F
FOND DU LAC    SUNNY     58  35  42 S8        30.03F
$$

WIZ022-050-052-192000-
EAST CENTRAL WISCONSIN

CITY           SKY/WX    TMP DP  RH WIND       PRES   REMARKS
EPHRAIM        FAIR      48  32  53 NE5       30.03S
WASHINGTON ISL FAIR      45  31  58 CALM      30.04S
STURGEON BAY   SUNNY     51  32  48 CALM      30.05S
MANITOWOC      SUNNY     51  33  50 MISG      30.05F
SHEBOYGAN      SUNNY     56  34  43 S5        30.04F
$$

LMZ563-521-522-541>543-192000-
LAKESHORE

STATION/POSITION TIME  TEMP    WIND        PRES    VSBY  WAVE
                       AIR SEA DIR/SP/G                  HT/PER
                 (UTC) (F)     (DEG/KT/KT) (MB)    (MI)  (FT/S)
SHEBOYGAN LKSHOR 1900   46      70/  6/  6 1017.7S
KEWAUNEE LKSHORE 1848   44     140/  1/  7 1017.0F
NORTHPORT PIER   1840   40      CALM  /  3 1017.6S
SISTER BAY LKSHO 1835   53        CALM       N/A
CHAMBERS ISLAND  1840   44      60/  5/  6 1016.9S
MENOMINEE LKSHOR 1848   43     140/  5/  6 1016.5S
$$




USA.gov is the U.S. government's official web portal to all federal, state and local government web resources and services.